This is the latest recevied weather packets stored in our database for station/object N0HEQ. If no packets are shown the sender has not sent any weather packets the latest 10 day(s).
| Time | Temp. | Humidity | Pressure | Rain* | Wind** | Luminosity | Snow |
|---|---|---|---|---|---|---|---|
| 1777864387 | 16.67° C | 30% | 1015 hPa | 0 mm | - | 0 W/m² | - |
| 1777864083 | 16.67° C | 29% | 1015.2 hPa | 0 mm | - | 0 W/m² | - |
| 1777863780 | 17.22° C | 29% | 1014.9 hPa | 0 mm | - | 0 W/m² | - |
| 1777863476 | 16.11° C | 30% | 1014.9 hPa | 0 mm | - | 0 W/m² | - |
| 1777863173 | 15.56° C | 31% | 1014.9 hPa | 0 mm | - | 0 W/m² | - |
| 1777862870 | 16.11° C | 29% | 1014.7 hPa | 0 mm | - | 0 W/m² | - |
| 1777862567 | 16.11° C | 28% | 1014.9 hPa | 0 mm | - | 0 W/m² | - |
| 1777862264 | 16.11° C | 28% | 1014.9 hPa | 0 mm | - | 0 W/m² | - |
| 1777861960 | 16.67° C | 29% | 1014.8 hPa | 0 mm | - | 0 W/m² | - |
| 1777861655 | 16.67° C | 28% | 1014.8 hPa | 0 mm | - | 0 W/m² | - |
| 1777861352 | 17.22° C | 27% | 1014.9 hPa | 0 mm | - | 0 W/m² | - |
| 1777861050 | 17.22° C | 27% | 1014.9 hPa | 0 mm | - | 0 W/m² | - |
| 1777860746 | 17.22° C | 27% | 1014.7 hPa | 0 mm | - | 0 W/m² | - |
| 1777860443 | 17.22° C | 26% | 1014.9 hPa | 0 mm | - | 0 W/m² | - |
| 1777860140 | 17.78° C | 26% | 1014.7 hPa | 0 mm | - | 0 W/m² | - |
| 1777859836 | 17.78° C | 26% | 1014.9 hPa | 0 mm | - | 1 W/m² | - |
| 1777859533 | 18.33° C | 24% | 1014.7 hPa | 0 mm | - | 1 W/m² | - |
| 1777859228 | 18.33° C | 24% | 1014.6 hPa | 0 mm | - | 2 W/m² | - |
| 1777858925 | 18.33° C | 24% | 1014.8 hPa | 0 mm | - | 3 W/m² | - |
| 1777858623 | 18.89° C | 24% | 1014.9 hPa | 0 mm | - | 4 W/m² | - |
| 1777858320 | 18.89° C | 24% | 1014.8 hPa | 0 mm | - | 6 W/m² | - |
| 1777858017 | 18.89° C | 24% | 1014.9 hPa | 0 mm | - | 7 W/m² | - |
| 1777857715 | 18.89° C | 24% | 1014.7 hPa | 0 mm | - | 9 W/m² | - |
| 1777857412 | 18.89° C | 23% | 1014.8 hPa | 0 mm | - | 12 W/m² | - |
| 1777857108 | 18.89° C | 24% | 1014.8 hPa | 0 mm | - | 11 W/m² | - |
* Rain latest hour (hover to see other rain measurements)
** Current wind speed in m/s (hover to see current wind gust speed)